| time (UTC) | temp F | wind direction | speed knots | gust knots | rain 1hr in | rain 24hr in | rain mn in | humidity % | barometer mb |
| 20260506221946 | 45 | 4 | 3.5 | 5.2 | 0.12 | 0.83 | 0.83 | 99 | 1004.4 |
| 20260506221443 | 45 | 17 | 2.6 | 3.5 | 0.17 | 0.83 | 0.83 | 99 | 1004.4 |
| 20260506220936 | 45 | 35 | 3.5 | 5.2 | 0.17 | 0.81 | 0.81 | 99 | 1004.6 |
| 20260506220431 | 45 | 349 | 1.7 | 7.0 | 0.17 | 0.79 | 0.79 | 99 | 1004.4 |
| 20260506215928 | 45 | 9 | 3.5 | 6.1 | 0.26 | 0.78 | 0.78 | 99 | 1004.6 |
| 20260506215424 | 45 | 339 | 3.5 | 7.0 | 0.31 | 0.76 | 0.76 | 99 | 1004.7 |
| 20260506214920 | 46 | 325 | 5.2 | 7.0 | 0.19 | 0.73 | 0.73 | 99 | 1004.3 |
| 20260506214417 | 46 | 4 | 3.5 | 9.6 | 0.12 | 0.71 | 0.71 | 99 | 1004.2 |
| 20260506213915 | 46 | 356 | 3.5 | 5.2 | 0.05 | 0.70 | 0.70 | 99 | 1004.0 |
| 20260506213412 | 47 | 286 | 3.5 | 6.1 | 0.07 | 0.69 | 0.69 | 99 | 1004.0 |
| 20260506212910 | 47 | 3 | 1.7 | 3.5 | 0.12 | 0.69 | 0.69 | 99 | 1004.2 |
| 20260506212405 | 47 | 359 | 2.6 | 5.2 | 0.17 | 0.68 | 0.68 | 99 | 1004.0 |
| 20260506211900 | 47 | 356 | 1.7 | 5.2 | 0.19 | 0.67 | 0.67 | 99 | 1003.6 |
| 20260506211357 | 48 | 337 | 2.6 | 3.5 | 0.07 | 0.65 | 0.65 | 99 | 1003.9 |
| 20260506210854 | 48 | 349 | 3.5 | 6.1 | 0.00 | 0.64 | 0.64 | 99 | 1003.6 |
| 20260506210350 | 48 | 347 | 2.6 | 3.5 | 0.00 | 0.64 | 0.64 | 99 | 1003.4 |
| 20260506205842 | 48 | 17 | 1.7 | 2.6 | 0.05 | 0.64 | 0.64 | 99 | 1003.4 |
| 20260506205338 | 48 | 7 | 2.6 | 5.2 | 0.07 | 0.63 | 0.63 | 99 | 1003.4 |
| 20260506204834 | 48 | 12 | 3.5 | 5.2 | 0.07 | 0.63 | 0.63 | 99 | 1003.2 |
| 20260506204332 | 48 | 332 | 5.2 | 7.8 | 0.00 | 0.62 | 0.62 | 99 | 1003.4 |
| 20260506203830 | 49 | 343 | 5.2 | 7.8 | 0.00 | 0.62 | 0.62 | 99 | 1003.4 |
| 20260506203327 | 49 | 2 | 2.6 | 5.2 | 0.00 | 0.62 | 0.62 | 99 | 1003.1 |
| 20260506202823 | 49 | 323 | 3.5 | 5.2 | 0.00 | 0.62 | 0.62 | 99 | 1003.3 |
| 20260506202320 | 49 | 355 | 3.5 | 3.5 | 0.00 | 0.62 | 0.62 | 99 | 1003.4 |
| 20260506201816 | 49 | 357 | 3.5 | 5.2 | 0.00 | 0.62 | 0.62 | 99 | 1003.4 |
| 20260506201314 | 49 | 328 | 4.3 | 5.2 | 0.00 | 0.62 | 0.62 | 99 | 1003.3 |
| 20260506200810 | 49 | 295 | 1.7 | 7.0 | 0.00 | 0.62 | 0.62 | 99 | 1003.5 |
| 20260506200306 | 50 | 354 | 2.6 | 5.2 | 0.00 | 0.62 | 0.62 | 99 | 1003.4 |
| 20260506195803 | 50 | 10 | 1.7 | 3.5 | 0.00 | 0.62 | 0.62 | 99 | 1003.4 |
| 20260506195300 | 51 | 300 | 3.5 | 3.5 | 0.00 | 0.62 | 0.62 | 99 | 1003.3 |
| 20260506194757 | 51 | 341 | 0.9 | 1.7 | 0.07 | 0.62 | 0.62 | 99 | 1003.2 |
| 20260506194253 | 51 | 269 | 1.7 | 7.8 | 0.07 | 0.62 | 0.62 | 99 | 1003.5 |
| 20260506193752 | 52 | 14 | 1.7 | 2.6 | 0.00 | 0.61 | 0.61 | 99 | 1003.4 |
| 20260506193248 | 53 | 305 | 1.7 | 5.2 | 0.05 | 0.61 | 0.61 | 99 | 1003.6 |
| 20260506192744 | 55 | 358 | 1.7 | 3.5 | 0.05 | 0.61 | 0.61 | 99 | 1003.6 |
| 20260506192241 | 55 | 306 | 1.7 | 1.7 | 0.07 | 0.60 | 0.60 | 99 | 1003.5 |
| 20260506191738 | 55 | 333 | 0.0 | 1.7 | 0.07 | 0.60 | 0.60 | 99 | 1003.5 |
| 20260506191234 | 55 | 355 | 0.9 | 0.9 | 0.05 | 0.59 | 0.59 | 99 | 1003.5 |
| 20260506190732 | 55 | 349 | 0.9 | 1.7 | 0.12 | 0.59 | 0.59 | 99 | 1003.6 |
| 20260506190228 | 55 | 334 | 0.9 | 1.7 | 0.12 | 0.58 | 0.58 | 99 | 1003.7 |
| 20260506185725 | 57 | 8 | 0.0 | 0.9 | 0.12 | 0.57 | 0.57 | 99 | 1003.9 |
| 20260506185221 | 57 | 279 | 0.0 | 1.7 | 0.19 | 0.56 | 0.56 | 99 | 1004.0 |
| 20260506184719 | 57 | 264 | 0.9 | 1.7 | 0.12 | 0.54 | 0.54 | 99 | 1004.1 |
| 20260506184216 | 57 | 294 | 1.7 | 1.7 | 0.12 | 0.53 | 0.53 | 99 | 1003.9 |
| 20260506183713 | 57 | 328 | 2.6 | 9.6 | 0.14 | 0.52 | 0.52 | 99 | 1003.9 |
| 20260506183208 | 57 | 276 | 0.9 | 1.7 | 0.12 | 0.51 | 0.51 | 99 | 1003.9 |
| 20260506182706 | 57 | 284 | 0.9 | 1.7 | 0.12 | 0.50 | 0.50 | 99 | 1004.1 |
| 20260506182203 | 57 | 274 | 0.0 | 0.0 | 0.12 | 0.49 | 0.49 | 99 | 1003.9 |
| 20260506181700 | 57 | 232 | 1.7 | 1.7 | 0.05 | 0.48 | 0.48 | 99 | 1004.2 |
| 20260506181158 | 57 | 252 | 0.0 | 0.0 | 0.12 | 0.47 | 0.47 | 99 | 1004.0 |
| 20260506180655 | 57 | 262 | 0.9 | 2.6 | 0.19 | 0.47 | 0.47 | 99 | 1004.1 |
| 20260506180151 | 57 | 164 | 1.7 | 1.7 | 0.12 | 0.45 | 0.45 | 99 | 1004.4 |
| 20260506175648 | 57 | 192 | 1.7 | 1.7 | 0.12 | 0.44 | 0.44 | 99 | 1004.3 |
| 20260506175145 | 57 | 196 | 1.7 | 2.6 | 0.12 | 0.43 | 0.43 | 99 | 1004.5 |
| 20260506174643 | 57 | 164 | 1.7 | 3.5 | 0.12 | 0.42 | 0.42 | 99 | 1004.6 |
| 20260506174139 | 57 | 238 | 1.7 | 2.6 | 0.12 | 0.41 | 0.41 | 99 | 1004.6 |
| 20260506173637 | 57 | 204 | 0.9 | 1.7 | 0.12 | 0.40 | 0.40 | 99 | 1004.5 |
| 20260506173133 | 57 | 146 | 1.7 | 1.7 | 0.07 | 0.39 | 0.39 | 99 | 1004.5 |
| 20260506172630 | 56 | 219 | 0.9 | 1.7 | 0.07 | 0.38 | 0.38 | 99 | 1004.5 |
| 20260506172121 | 55 | 258 | 0.0 | 0.0 | 0.07 | 0.38 | 0.38 | 99 | 1004.6 |
| 20260506171620 | 55 | 327 | 0.0 | 0.0 | 0.05 | 0.37 | 0.37 | 99 | 1004.4 |
| 20260506171117 | 55 | 327 | 0.0 | 0.0 | 0.07 | 0.36 | 0.36 | 99 | 1004.5 |
| 20260506170614 | 55 | 328 | 0.0 | 0.0 | 0.07 | 0.36 | 0.36 | 99 | 1004.4 |
| 20260506170110 | 55 | 325 | 0.0 | 0.9 | 0.05 | 0.35 | 0.35 | 99 | 1004.6 |
| 20260506165609 | 55 | 333 | 0.9 | 1.7 | 0.05 | 0.35 | 0.35 | 99 | 1004.6 |
| 20260506165059 | 55 | 346 | 0.9 | 0.9 | 0.07 | 0.34 | 0.34 | 99 | 1004.7 |
| 20260506164556 | 55 | 16 | 0.9 | 1.7 | 0.07 | 0.34 | 0.34 | 99 | 1004.6 |
| 20260506164053 | 55 | 312 | 0.0 | 0.0 | 0.05 | 0.33 | 0.33 | 99 | 1004.6 |
| 20260506163549 | 55 | 297 | 0.0 | 1.7 | 0.05 | 0.33 | 0.33 | 99 | 1004.7 |
| 20260506163045 | 55 | 200 | 1.7 | 1.7 | 0.00 | 0.32 | 0.32 | 99 | 1004.9 |
| 20260506162541 | 55 | 319 | 0.0 | 0.9 | 0.00 | 0.32 | 0.32 | 99 | 1004.7 |
| 20260506162033 | 55 | 294 | 0.0 | 0.0 | 0.07 | 0.32 | 0.32 | 99 | 1005.0 |
| 20260506161530 | 54 | 254 | 0.9 | 1.7 | 0.07 | 0.32 | 0.32 | 99 | 1005.1 |
| 20260506161027 | 54 | 221 | 0.0 | 0.0 | 0.05 | 0.31 | 0.31 | 99 | 1005.5 |
| 20260506160525 | 54 | 5 | 0.0 | 0.0 | 0.05 | 0.31 | 0.31 | 99 | 1005.5 |
| 20260506160022 | 54 | 271 | 0.0 | 0.0 | 0.00 | 0.30 | 0.30 | 99 | 1005.7 |
| 20260506155521 | 54 | 331 | 0.0 | 0.0 | 0.07 | 0.30 | 0.30 | 99 | 1005.6 |
| 20260506153652 | 53 | 358 | 0.0 | 0.0 | 0.07 | 0.28 | 0.28 | 99 | 1006.0 |
| 20260506153149 | 53 | 358 | 0.0 | 0.0 | 0.07 | 0.28 | 0.28 | 99 | 1005.9 |
| 20260506152646 | 53 | 327 | 0.0 | 0.0 | 0.05 | 0.27 | 0.27 | 99 | 1006.1 |
| 20260506152144 | 53 | 328 | 0.0 | 0.0 | 0.05 | 0.27 | 0.27 | 99 | 1006.2 |
| 20260506151642 | 53 | 311 | 0.0 | 0.0 | 0.00 | 0.26 | 0.26 | 99 | 1006.2 |
| 20260506151138 | 53 | 317 | 0.9 | 1.7 | 0.00 | 0.26 | 0.26 | 99 | 1006.2 |
| 20260506150635 | 53 | 0 | 1.7 | 1.7 | 0.07 | 0.26 | 0.26 | 99 | 1006.2 |
| 20260506150133 | 53 | 5 | 0.0 | 0.9 | 0.07 | 0.26 | 0.26 | 99 | 1006.3 |
| 20260506145629 | 53 | 13 | 0.0 | 1.7 | 0.00 | 0.25 | 0.25 | 99 | 1006.5 |
| 20260506145126 | 53 | 319 | 0.9 | 0.9 | 0.00 | 0.25 | 0.25 | 99 | 1006.4 |
| 20260506144624 | 53 | 287 | 0.0 | 0.0 | 0.07 | 0.25 | 0.25 | 99 | 1006.2 |
| 20260506144120 | 53 | 294 | 0.9 | 0.9 | 0.07 | 0.25 | 0.25 | 99 | 1006.2 |
| 20260506143618 | 53 | 287 | 0.9 | 1.7 | 0.00 | 0.24 | 0.24 | 99 | 1006.2 |
| 20260506143115 | 52 | 301 | 0.9 | 1.7 | 0.00 | 0.24 | 0.24 | 99 | 1006.2 |
| 20260506142614 | 52 | 305 | 0.9 | 1.7 | 0.00 | 0.24 | 0.24 | 99 | 1006.1 |
| 20260506142112 | 52 | 15 | 0.9 | 2.6 | 0.00 | 0.24 | 0.24 | 99 | 1006.3 |
| 20260506141609 | 52 | 6 | 0.9 | 1.7 | 0.00 | 0.24 | 0.24 | 99 | 1006.2 |
| 20260506141107 | 52 | 331 | 1.7 | 2.6 | 0.00 | 0.24 | 0.24 | 99 | 1006.2 |
| 20260506140604 | 52 | 341 | 2.6 | 3.5 | 0.00 | 0.24 | 0.24 | 99 | 1006.1 |
| 20260506135558 | 52 | 337 | 1.7 | 2.6 | 0.00 | 0.24 | 0.24 | 99 | 1006.1 |
| 20260506135054 | 52 | 312 | 1.7 | 2.6 | 0.05 | 0.24 | 0.24 | 99 | 1006.1 |
| 20260506134551 | 52 | 14 | 0.9 | 1.7 | 0.05 | 0.24 | 0.24 | 99 | 1005.9 |
| 20260506134047 | 52 | 356 | 1.7 | 2.6 | 0.07 | 0.23 | 0.23 | 99 | 1006.2 |
| 20260506133544 | 51 | 0.9 | 1.7 | 0.07 | 0.23 | 0.23 | 99 | 1006.5 | |
| 20260506133041 | 52 | 285 | 0.9 | 1.7 | 0.00 | 0.22 | 0.22 | 99 | 1006.8 |
| 20260506132539 | 52 | 319 | 1.7 | 1.7 | 0.05 | 0.22 | 0.22 | 99 | 1006.6 |
| 20260506132036 | 52 | 317 | 0.0 | 1.7 | 0.05 | 0.22 | 0.22 | 99 | 1006.7 |
| 20260506131533 | 52 | 347 | 0.9 | 1.7 | 0.00 | 0.21 | 0.21 | 99 | 1006.4 |
| 20260506131029 | 52 | 333 | 1.7 | 1.7 | 0.07 | 0.21 | 0.21 | 99 | 1006.6 |
| 20260506130526 | 51 | 1 | 0.0 | 0.0 | 0.07 | 0.21 | 0.21 | 99 | 1006.7 |
| 20260506130024 | 51 | 331 | 0.9 | 0.9 | 0.00 | 0.20 | 0.20 | 99 | 1006.7 |
| 20260506125522 | 51 | 7 | 2.6 | 3.5 | 0.00 | 0.20 | 0.20 | 99 | 1006.5 |
| 20260506125019 | 51 | 358 | 1.7 | 2.6 | 0.00 | 0.20 | 0.20 | 99 | 1006.6 |
| 20260506124517 | 51 | 354 | 3.5 | 3.5 | 0.00 | 0.20 | 0.20 | 99 | 1006.5 |
| 20260506124015 | 51 | 328 | 0.9 | 2.6 | 0.00 | 0.20 | 0.20 | 99 | 1006.8 |
| 20260506123512 | 52 | 328 | 0.9 | 1.7 | 0.00 | 0.20 | 0.20 | 99 | 1006.6 |
| 20260506123010 | 52 | 323 | 0.9 | 2.6 | 0.00 | 0.20 | 0.20 | 99 | 1006.5 |
| 20260506122506 | 52 | 343 | 1.7 | 2.6 | 0.00 | 0.20 | 0.20 | 99 | 1006.6 |
| 20260506122005 | 52 | 285 | 0.9 | 1.7 | 0.00 | 0.20 | 0.20 | 99 | 1006.5 |
| 20260506121502 | 52 | 324 | 0.0 | 0.0 | 0.00 | 0.20 | 0.20 | 99 | 1006.5 |
| 20260506120958 | 52 | 267 | 0.0 | 0.0 | 0.00 | 0.20 | 0.20 | 99 | 1006.4 |
| 20260506120456 | 52 | 288 | 0.0 | 0.0 | 0.00 | 0.20 | 0.20 | 99 | 1006.5 |
| 20260506115953 | 51 | 289 | 0.0 | 0.0 | 0.00 | 0.20 | 0.20 | 99 | 1006.6 |
| 20260506115451 | 52 | 289 | 0.0 | 0.0 | 0.00 | 0.20 | 0.20 | 99 | 1006.5 |
| 20260506114949 | 51 | 288 | 0.0 | 0.0 | 0.00 | 0.20 | 0.20 | 99 | 1006.6 |
| 20260506114446 | 51 | 337 | 0.0 | 0.0 | 0.00 | 0.20 | 0.20 | 99 | 1006.5 |
| 20260506113945 | 51 | 337 | 0.0 | 0.0 | 0.00 | 0.20 | 0.20 | 99 | 1006.7 |
| 20260506113442 | 51 | 331 | 0.0 | 0.0 | 0.00 | 0.20 | 0.20 | 99 | 1006.6 |
| 20260506112938 | 51 | 325 | 0.0 | 0.0 | 0.00 | 0.20 | 0.20 | 99 | 1007.1 |
| 20260506112436 | 51 | 5 | 0.0 | 0.0 | 0.00 | 0.20 | 0.20 | 99 | 1007.2 |
| 20260506111933 | 51 | 346 | 0.0 | 0.0 | 0.00 | 0.20 | 0.20 | 99 | 1007.1 |
| 20260506111431 | 51 | 27 | 0.0 | 0.0 | 0.00 | 0.20 | 0.20 | 99 | 1007.1 |
| 20260506110928 | 51 | 352 | 0.0 | 0.0 | 0.00 | 0.20 | 0.20 | 99 | 1007.5 |
| 20260506110426 | 51 | 311 | 0.0 | 0.0 | 0.00 | 0.20 | 0.20 | 99 | 1007.2 |
| 20260506105922 | 51 | 304 | 0.0 | 0.0 | 0.00 | 0.20 | 0.20 | 99 | 1007.0 |
| 20260506105418 | 51 | 325 | 0.0 | 0.0 | 0.00 | 0.20 | 0.20 | 99 | 1007.1 |
| 20260506104916 | 51 | 91 | 0.0 | 0.0 | 0.00 | 0.20 | 0.20 | 99 | 1007.1 |
| 20260506104414 | 51 | 189 | 0.0 | 0.0 | 0.00 | 0.20 | 0.20 | 99 | 1007.2 |
| 20260506103912 | 51 | 306 | 0.0 | 0.0 | 0.00 | 0.20 | 0.20 | 99 | 1007.3 |
| 20260506103409 | 51 | 284 | 0.0 | 0.0 | 0.00 | 0.20 | 0.20 | 99 | 1007.2 |
| 20260506102906 | 51 | 318 | 0.0 | 0.0 | 0.00 | 0.20 | 0.20 | 99 | 1006.8 |
| 20260506102404 | 51 | 318 | 0.0 | 0.0 | 0.00 | 0.20 | 0.20 | 99 | 1006.8 |
| 20260506101901 | 51 | 319 | 0.0 | 0.0 | 0.00 | 0.20 | 0.20 | 99 | 1006.8 |
| 20260506101356 | 51 | 319 | 0.0 | 0.0 | 0.00 | 0.20 | 0.20 | 99 | 1006.7 |
| 20260506100854 | 51 | 317 | 0.0 | 0.0 | 0.00 | 0.20 | 0.20 | 99 | 1007.3 |
| 20260506100352 | 51 | 316 | 0.0 | 0.0 | 0.00 | 0.20 | 0.20 | 99 | 1007.3 |
| 20260506095850 | 51 | 297 | 0.0 | 0.0 | 0.00 | 0.20 | 0.20 | 99 | 1007.4 |
| 20260506095348 | 51 | 295 | 0.0 | 0.9 | 0.00 | 0.20 | 0.20 | 99 | 1007.2 |
| 20260506094844 | 51 | 343 | 0.9 | 0.9 | 0.00 | 0.20 | 0.20 | 99 | 1007.1 |
| 20260506094343 | 51 | 345 | 0.9 | 1.7 | 0.00 | 0.20 | 0.20 | 99 | 1007.2 |
| 20260506093835 | 51 | 28 | 0.0 | 0.0 | 0.00 | 0.20 | 0.20 | 99 | 1007.4 |
| 20260506093332 | 51 | 29 | 0.0 | 0.0 | 0.00 | 0.20 | 0.20 | 99 | 1007.6 |
| 20260506092830 | 51 | 358 | 0.9 | 1.7 | 0.00 | 0.20 | 0.20 | 99 | 1007.4 |
| 20260506092327 | 51 | 356 | 1.7 | 1.7 | 0.00 | 0.20 | 0.20 | 99 | 1007.7 |
| 20260506091823 | 51 | 73 | 0.0 | 0.0 | 0.00 | 0.20 | 0.20 | 99 | 1007.8 |
| 20260506091321 | 51 | 320 | 0.0 | 0.0 | 0.00 | 0.20 | 0.20 | 99 | 1008.0 |
| 20260506090819 | 51 | 321 | 0.0 | 0.0 | 0.00 | 0.20 | 0.20 | 99 | 1007.7 |
| 20260506090316 | 51 | 340 | 0.0 | 0.0 | 0.00 | 0.20 | 0.20 | 99 | 1007.3 |
| 20260506085813 | 51 | 293 | 0.0 | 0.0 | 0.00 | 0.20 | 0.20 | 99 | 1007.6 |
| 20260506085309 | 51 | 292 | 0.0 | 0.9 | 0.00 | 0.20 | 0.20 | 99 | 1007.5 |
| 20260506084806 | 51 | 36 | 0.0 | 0.0 | 0.00 | 0.20 | 0.20 | 99 | 1007.8 |
| 20260506084302 | 51 | 35 | 0.0 | 0.0 | 0.00 | 0.20 | 0.20 | 99 | 1007.5 |
| 20260506083759 | 51 | 359 | 0.0 | 0.0 | 0.00 | 0.20 | 0.20 | 99 | 1007.4 |
| 20260506083257 | 52 | 227 | 0.0 | 0.0 | 0.00 | 0.20 | 0.20 | 99 | 1007.7 |
| 20260506082754 | 52 | 269 | 0.0 | 0.0 | 0.00 | 0.20 | 0.20 | 99 | 1007.5 |
| 20260506082250 | 52 | 266 | 0.0 | 0.0 | 0.00 | 0.20 | 0.20 | 99 | 1007.4 |
| 20260506081747 | 52 | 269 | 0.0 | 0.0 | 0.00 | 0.20 | 0.20 | 99 | 1007.2 |
| 20260506081245 | 52 | 266 | 0.9 | 0.9 | 0.00 | 0.20 | 0.20 | 99 | 1007.3 |
| 20260506080743 | 52 | 218 | 0.0 | 0.0 | 0.00 | 0.20 | 0.20 | 99 | 1007.3 |
| 20260506080239 | 52 | 20 | 0.0 | 0.9 | 0.00 | 0.20 | 0.20 | 99 | 1007.2 |
| 20260506073223 | 52 | 251 | 0.0 | 0.0 | 0.00 | 0.19 | 0.19 | 99 | 1007.4 |
| 20260506072720 | 52 | 258 | 0.0 | 0.0 | 0.00 | 0.19 | 0.19 | 99 | 1007.8 |
| 20260506072217 | 52 | 258 | 0.0 | 0.0 | 0.00 | 0.19 | 0.19 | 99 | 1008.0 |
| 20260506071715 | 52 | 242 | 0.9 | 0.9 | 0.00 | 0.19 | 0.19 | 99 | 1008.0 |
| 20260506071213 | 52 | 272 | 0.9 | 0.9 | 0.07 | 0.19 | 0.19 | 99 | 1007.9 |
| 20260506070709 | 52 | 101 | 0.9 | 1.7 | 0.07 | 0.19 | 0.19 | 99 | 1007.7 |
| 20260506070207 | 52 | 186 | 0.9 | 1.7 | 0.05 | 0.18 | 0.18 | 99 | 1008.0 |
| 20260506062143 | 53 | 84 | 0.9 | 1.7 | 0.42 | 0.10 | 0.10 | 99 | 1007.8 |
| 20260506061639 | 53 | 316 | 0.9 | 0.9 | 0.12 | 0.05 | 0.05 | 99 | 1008.2 |
| 20260506061137 | 53 | 293 | 0.9 | 1.7 | 0.00 | 0.03 | 0.03 | 99 | 1007.8 |
| 20260506060635 | 53 | 357 | 0.9 | 1.7 | 0.00 | 0.03 | 0.03 | 99 | 1007.6 |
| 20260506060132 | 53 | 342 | 0.9 | 1.7 | 0.00 | 0.03 | 0.03 | 99 | 1007.7 |
| 20260506051104 | 55 | 17 | 0.0 | 1.7 | 0.14 | 0.02 | 0.02 | 99 | 1007.8 |
| 20260506050602 | 55 | 29 | 0.9 | 7.0 | 0.07 | 0.01 | 0.01 | 99 | 1007.8 |
| 20260506045052 | 56 | 354 | 0.9 | 3.5 | 0.00 | 0.00 | 0.00 | 99 | 1007.3 |
| 20260506044550 | 56 | 324 | 1.7 | 7.0 | 0.00 | 0.00 | 0.00 | 99 | 1007.0 |
| 20260506044046 | 55 | 314 | 1.7 | 2.6 | 0.00 | 0.00 | 0.00 | 99 | 1006.7 |
| 20260506043544 | 55 | 272 | 0.9 | 2.6 | 0.00 | 0.00 | 0.00 | 99 | 1006.3 |
| 20260506043042 | 55 | 260 | 1.7 | 2.6 | 0.00 | 0.00 | 0.00 | 99 | 1006.1 |
| 20260506042541 | 55 | 248 | 1.7 | 1.7 | 0.00 | 0.00 | 0.00 | 99 | 1006.1 |
| 20260506042038 | 55 | 291 | 0.0 | 0.0 | 0.00 | 0.00 | 0.00 | 99 | 1006.0 |
| 20260506041537 | 55 | 292 | 0.0 | 0.0 | 0.00 | 0.00 | 0.00 | 99 | 1005.7 |
| 20260506041033 | 55 | 292 | 0.0 | 0.0 | 0.00 | 0.00 | 0.00 | 99 | 1006.1 |
| 20260506040531 | 55 | 292 | 0.0 | 0.0 | 0.00 | 0.00 | 0.00 | 99 | 1006.0 |
| 20260506040027 | 55 | 291 | 0.0 | 0.0 | 0.00 | 0.00 | 0.00 | 99 | 1006.2 |
| 20260506035524 | 56 | 292 | 0.0 | 0.0 | 0.00 | 0.14 | 0.14 | 99 | 1005.9 |
| 20260506035021 | 56 | 292 | 0.0 | 0.0 | 0.00 | 0.14 | 0.14 | 97 | 1005.9 |
| 20260506034518 | 56 | 290 | 0.0 | 0.0 | 0.00 | 0.14 | 0.14 | 97 | 1006.0 |
| 20260506034015 | 56 | 256 | 0.0 | 0.0 | 0.00 | 0.14 | 0.14 | 96 | 1006.0 |
| 20260506033513 | 57 | 230 | 0.0 | 0.9 | 0.00 | 0.14 | 0.14 | 95 | 1006.2 |
| 20260506033009 | 57 | 210 | 1.7 | 3.5 | 0.00 | 0.14 | 0.14 | 96 | 1006.1 |
| 20260506032507 | 57 | 260 | 0.0 | 1.7 | 0.00 | 0.14 | 0.14 | 95 | 1006.0 |
| 20260506032003 | 57 | 248 | 0.9 | 0.9 | 0.00 | 0.14 | 0.14 | 92 | 1006.0 |
| 20260506031501 | 57 | 216 | 0.0 | 1.7 | 0.00 | 0.14 | 0.14 | 90 | 1005.8 |
| 20260506030958 | 56 | 133 | 0.0 | 1.7 | 0.00 | 0.14 | 0.14 | 98 | 1005.8 |
| 20260506030456 | 55 | 227 | 0.9 | 1.7 | 0.00 | 0.14 | 0.14 | 99 | 1005.8 |
| 20260506025953 | 55 | 199 | 0.9 | 1.7 | 0.00 | 0.14 | 0.14 | 99 | 1005.8 |
| 20260506025449 | 55 | 225 | 0.9 | 1.7 | 0.00 | 0.14 | 0.14 | 99 | 1005.6 |
| 20260506024946 | 55 | 244 | 0.9 | 1.7 | 0.00 | 0.14 | 0.14 | 99 | 1005.8 |
| 20260506024443 | 56 | 266 | 0.0 | 0.0 | 0.00 | 0.14 | 0.14 | 98 | 1005.7 |
| 20260506023938 | 57 | 266 | 0.9 | 2.6 | 0.00 | 0.14 | 0.14 | 95 | 1005.8 |
| 20260506023436 | 57 | 262 | 0.9 | 1.7 | 0.00 | 0.14 | 0.14 | 92 | 1005.8 |
| 20260506022932 | 57 | 229 | 0.9 | 1.7 | 0.00 | 0.14 | 0.14 | 93 | 1005.5 |
| 20260506022430 | 56 | 236 | 0.9 | 2.6 | 0.00 | 0.14 | 0.14 | 94 | 1005.6 |
| 20260506021928 | 56 | 208 | 0.9 | 0.9 | 0.00 | 0.14 | 0.14 | 97 | 1005.7 |
| 20260506021425 | 57 | 175 | 0.9 | 1.7 | 0.00 | 0.14 | 0.14 | 96 | 1005.7 |
| 20260506020922 | 57 | 195 | 0.0 | 1.7 | 0.00 | 0.14 | 0.14 | 93 | 1005.9 |
| 20260506020420 | 59 | 220 | 0.9 | 1.7 | 0.00 | 0.14 | 0.14 | 89 | 1005.7 |
| 20260506015916 | 58 | 137 | 0.9 | 1.7 | 0.00 | 0.14 | 0.14 | 90 | 1005.8 |
| 20260506015414 | 59 | 178 | 0.0 | 1.7 | 0.00 | 0.14 | 0.14 | 89 | 1005.8 |
| 20260506014911 | 59 | 152 | 0.9 | 1.7 | 0.00 | 0.14 | 0.14 | 89 | 1005.8 |
| 20260506014408 | 60 | 146 | 0.9 | 2.6 | 0.00 | 0.14 | 0.14 | 88 | 1005.9 |
| 20260506013904 | 59 | 188 | 1.7 | 1.7 | 0.00 | 0.14 | 0.14 | 91 | 1005.9 |
| 20260506013402 | 59 | 137 | 2.6 | 2.6 | 0.00 | 0.14 | 0.14 | 91 | 1005.9 |
| 20260506012858 | 59 | 145 | 0.9 | 0.9 | 0.00 | 0.14 | 0.14 | 92 | 1006.0 |
| 20260506012355 | 59 | 155 | 1.7 | 3.5 | 0.00 | 0.14 | 0.14 | 89 | 1006.0 |
| 20260506011852 | 59 | 162 | 2.6 | 3.5 | 0.00 | 0.14 | 0.14 | 89 | 1006.0 |
| 20260506011349 | 59 | 166 | 0.9 | 1.7 | 0.00 | 0.14 | 0.14 | 92 | 1006.0 |
| 20260506010846 | 59 | 83 | 2.6 | 3.5 | 0.00 | 0.14 | 0.14 | 89 | 1005.9 |
| 20260506010344 | 59 | 147 | 0.9 | 1.7 | 0.00 | 0.14 | 0.14 | 92 | 1005.9 |
| 20260506005841 | 58 | 159 | 2.6 | 2.6 | 0.00 | 0.14 | 0.14 | 94 | 1005.8 |
| 20260506005338 | 57 | 106 | 1.7 | 1.7 | 0.00 | 0.14 | 0.14 | 94 | 1006.0 |
| 20260506004833 | 58 | 121 | 0.9 | 1.7 | 0.00 | 0.14 | 0.14 | 96 | 1005.8 |
| 20260506004332 | 59 | 164 | 1.7 | 1.7 | 0.00 | 0.14 | 0.14 | 91 | 1005.7 |
| 20260506003827 | 58 | 157 | 1.7 | 2.6 | 0.00 | 0.14 | 0.14 | 92 | 1005.6 |
| 20260506003324 | 58 | 188 | 0.9 | 2.6 | 0.00 | 0.14 | 0.14 | 97 | 1005.6 |
| 20260506002820 | 58 | 187 | 0.9 | 1.7 | 0.00 | 0.14 | 0.14 | 97 | 1005.4 |
| 20260506002317 | 59 | 117 | 1.7 | 2.6 | 0.00 | 0.14 | 0.14 | 92 | 1005.2 |
| 20260506001812 | 59 | 181 | 1.7 | 2.6 | 0.00 | 0.14 | 0.14 | 92 | 1005.2 |
| 20260506001310 | 59 | 188 | 2.6 | 2.6 | 0.00 | 0.14 | 0.14 | 92 | 1005.3 |
| 20260506000807 | 58 | 221 | 0.9 | 1.7 | 0.00 | 0.14 | 0.14 | 97 | 1005.1 |
| 20260506000304 | 59 | 200 | 1.7 | 2.6 | 0.00 | 0.14 | 0.14 | 96 | 1005.0 |
| 20260505235801 | 59 | 278 | 0.0 | 0.9 | 0.00 | 0.14 | 0.14 | 95 | 1005.1 |
| 20260505235259 | 59 | 204 | 0.9 | 2.6 | 0.00 | 0.14 | 0.14 | 94 | 1005.1 |
| 20260505234755 | 58 | 147 | 5.2 | 6.1 | 0.00 | 0.14 | 0.14 | 95 | 1004.9 |
| 20260505234253 | 57 | 36 | 0.0 | 1.7 | 0.00 | 0.14 | 0.14 | 99 | 1004.9 |
| 20260505233749 | 57 | 117 | 0.0 | 0.9 | 0.00 | 0.14 | 0.14 | 99 | 1004.9 |
| 20260505233248 | 58 | 85 | 0.9 | 0.9 | 0.00 | 0.14 | 0.14 | 99 | 1004.7 |
| 20260505232744 | 57 | 101 | 1.7 | 1.7 | 0.00 | 0.14 | 0.14 | 99 | 1005.1 |
| 20260505232242 | 57 | 129 | 1.7 | 1.7 | 0.00 | 0.14 | 0.14 | 99 | 1005.0 |
| 20260505231738 | 57 | 121 | 1.7 | 2.6 | 0.00 | 0.14 | 0.14 | 99 | 1004.9 |
| 20260505231237 | 57 | 71 | 0.9 | 1.7 | 0.00 | 0.14 | 0.14 | 99 | 1004.9 |
| 20260505230735 | 58 | 103 | 0.9 | 1.7 | 0.00 | 0.14 | 0.14 | 99 | 1005.1 |
| 20260505230231 | 58 | 168 | 0.9 | 1.7 | 0.00 | 0.14 | 0.14 | 99 | 1005.1 |
| 20260505225728 | 58 | 177 | 0.9 | 1.7 | 0.00 | 0.14 | 0.14 | 99 | 1005.0 |
| 20260505225225 | 58 | 155 | 0.9 | 1.7 | 0.00 | 0.14 | 0.14 | 99 | 1004.9 |
| 20260505224720 | 58 | 138 | 3.5 | 3.5 | 0.00 | 0.14 | 0.14 | 99 | 1004.7 |
| 20260505224218 | 58 | 175 | 1.7 | 2.6 | 0.00 | 0.14 | 0.14 | 99 | 1004.8 |
| 20260505223716 | 58 | 206 | 1.7 | 1.7 | 0.00 | 0.14 | 0.14 | 99 | 1004.8 |
| 20260505223212 | 59 | 190 | 0.9 | 1.7 | 0.00 | 0.14 | 0.14 | 99 | 1004.6 |
| 20260505222708 | 59 | 290 | 0.0 | 0.9 | 0.00 | 0.14 | 0.14 | 99 | 1004.6 |